DECAYED
Showing default

AST BLUEBIRD 7, 68765 (Decayed)

Orbit data source: Space-Track

AST BLUEBIRD 7, 68765 was a payload satellite owned by AST & Science (US) in LEO that was launched on Sun, 19 Apr 2026 UTC via an NEW GLENN 7X2 launch vehicle from the Air Force Eastern Test Range (AFETR). Payload-class satellites include a variety of spacecraft equipped with specific instruments for various scientific and technological missions. These include communications satellites like Starlink; space stations such as the ISS; scientific satellites like the Hubble; Earth observation satellites from companies like Planet Labs, Umbra, and HawkEye 360; GPS; miniature CubeSats for education and research; and military/defense satellites.

Loading next visibility...
Identifier
68765, 2026-085A
Orbit
Decayed
Country
Flag of USUS
Related business
Manufacturer
AST & Science
Mission
Decayed spacecraft
Bus & Motor
BB BLOCK-2, EP
Mass
5,850 kg wet, 5,830 kg dry
Launch date (UTC)
2026-04-19 (2 months ago)
Launch vehicle
NEW GLENN 7X2
Launch site
Air Force Eastern Test Range (AFETR)
Object type
Payload
Rocket body
Debris
Shape & HBR
Unknown shape, 14.5 m
Radar Cross Section
RCS unknown

Expand to show TLE details & history
Last TLE update: 2 months ago

TLE from 2 months ago
0 AST BLUEBIRD 7
1 68765U 26085A   26110.15512012  .00033684  81193-5  17840-3 0  9994
2 68765  42.9612 171.3926 0162582 193.6002 166.0453 15.64310274   112
Epoch: 2026-04-20T03:43Z
TLE epoch observation values (Epoch: 2026-04-20T03:43:22.378Z)
Latitude
-0.00001°
Longitude
-92.69997°
Altitude
481.633 km
Speed
7.566 km/s
True Right ascension
11h 25m 34s
True Declination
0° 00' 00"
Sunlit
Object was in full shadow at epoch
Visualization orbit readout
Latitude
Unknown
Longitude
Unknown
Altitude
Unknown
Speed
Unknown
Apparent Right ascension
Unknown
Apparent Declination
Unknown
Sunlit
N/A
Visualization observer readout
Local Sidereal Time
07:19:26
Azimuth
Unknown
Elevation
Unknown
Doppler factor
Unknown
Orbital elements
Apogee altitude
487.036 km
Perigee altitude
267.377 km
Semi-major axis
6,755.344 km
Eccentricity
0.01626
Inclination
42.9612°
RAAN
171.3926°
Arg. of periapsis
193.6002°
True anomaly
166.48588°
Mean anomaly
166.0453°
Eccentric anomaly
166.26645°
Mean motion
3.90906 °/min
Orbital period
92.09 mins
BSTAR
0.0001784
Loading maneuver chart data...
Computing Atmospheric mass density...
Loading historical data...
Loading historical data...
Loading historical data...
Loading historical data...
Loading historical data...
Loading historical data...
Loading historical data...
Other satellites on launch #85 in the year 2026 (2026-04-19 UTC)

Documentation

Showing up to 5 results
|